Location: Lawrence
(38.9720°N, 95.2350°W)
Time: 21:04:20
(UTC-05:00)

JAS-1B - Visible Passes

Search period start: 30 March 2015 00:00
Search period end: 09 April 2015 00:00
Orbit: 911 x 1744 km, 99.1° (Epoch: 30 March)

Date Brightness Start Highest point End Pass type
(mag) Time Alt. Az. Time Alt. Az. Time Alt. Az.
30 Mar 9.6 00:39:00 10° NNE 00:39:40 13° NE 00:39:40 13° NE visible
30 Mar 9.2 02:29:55 10° N 02:31:56 20° NNW 02:31:56 20° NNW visible
31 Mar 9.4 00:57:44 10° NNE 00:59:08 18° NNE 00:59:08 18° NNE visible
31 Mar 9.2 02:49:20 10° NNW 02:51:25 19° NNW 02:51:25 19° NNW visible
01 Apr 9.2 01:16:36 10° NNE 01:18:37 22° NNE 01:18:37 22° NNE visible
01 Apr 9.3 03:08:57 10° NNW 03:10:53 16° NW 03:10:53 16° NW visible
02 Apr 9.0 01:35:35 10° NNE 01:38:06 26° N 01:38:06 26° N visible
02 Apr 9.4 03:28:57 10° NNW 03:30:22 13° NW 03:30:22 13° NW visible
03 Apr 9.6 00:05:01 10° NE 00:05:19 11° NE 00:05:19 11° NE visible
03 Apr 8.9 01:54:40 10° N 01:57:35 29° N 01:57:35 29° N visible
04 Apr 9.4 00:23:24 10° NE 00:24:48 16° NE 00:24:48 16° NE visible
04 Apr 8.9 02:13:53 10° N 02:17:04 29° NNW 02:17:04 29° NNW visible
05 Apr 9.2 00:42:02 10° NNE 00:44:18 22° NE 00:44:18 22° NE visible
05 Apr 8.9 02:33:11 10° N 02:36:35 26° NNW 02:36:35 26° NNW visible
06 Apr 8.9 01:00:51 10° NNE 01:03:48 28° NNE 01:03:48 28° NNE visible
06 Apr 9.1 02:52:38 10° NNW 02:56:04 22° NW 02:56:04 22° NW visible
07 Apr 8.7 01:19:46 10° NNE 01:23:19 35° NNE 01:23:19 35° NNE visible
07 Apr 9.2 03:12:17 10° NNW 03:15:35 18° NW 03:15:35 18° NW visible
07 Apr 9.6 23:49:40 10° NE 23:50:33 13° NE 23:50:33 13° NE visible
08 Apr 8.6 01:38:48 10° N 01:42:49 39° N 01:42:49 39° N visible
08 Apr 9.4 03:32:23 10° NNW 03:35:06 14° NW 03:35:06 14° NW visible
